Tracking 27419 objects as of 10-Jun-2023
HD Live streaming from Space Station
objects crossing your sky now

FREGAT DEB

Track FREGAT DEB now!
10-day predictions


NORAD ID: 46252
Int'l Code: 2011-037KN
Perigee: 1,034.8 km
Apogee: 4,586.1 km
Inclination: 50.7 °
Period: 145.9 minutes
Semi major axis: 9181 km
RCS: Unknown
Launch date: July 18, 2011
Source: Commonwealth of Independent States (former USSR) (CIS)
Launch site: TYURATAM MISSILE AND SPACE COMPLEX (TTMTR)

Note: This is SATELLITE DEBRIS
Your satellite tracking list
Your tracking list is empty




NASA's NSSDC Master Catalog

Two Line Element Set (TLE):
1 46252U 11037KN  23160.38184094  .00022434  00000-0  19859+0 0  9996
2 46252  50.7129 173.9623 1933931 208.5478 139.4491  9.86818351100482
Source of the keplerian elements: AFSPC